DW8824 Weather Reports


Display with metric or nautical units.
time (UTC)temp
F
wind
direction
speed
MPH
gust
MPH
rain 1hr
in
rain 24hr
in
rain mn
in
humidity
%
barometer
mb
20260831094906 73 90 10.0 21.0 0.00 0.06 0.05 70 1025.1
20260831094405 73 98 9.0 17.0 0.00 0.06 0.05 71 1025.2
20260831093905 73 86 12.0 21.0 0.00 0.06 0.05 72 1025.3
20260831093405 72 92 7.0 18.0 0.00 0.06 0.05 79 1025.3
20260831092405 70 82 9.0 14.0 0.00 0.06 0.05 81 1025.5
20260831091905 71 82 8.0 20.0 0.00 0.06 0.05 79 1025.7
20260831091406 72 67 8.0 17.0 0.00 0.06 0.05 77 1025.7
20260831090905 74 75 13.0 22.0 0.00 0.06 0.05 74 1025.7
20260831090405 75 66 6.0 18.0 0.00 0.06 0.05 71 1025.4
20260831084905 76 92 6.0 17.0 0.00 0.06 0.05 71 1025.6
20260831084406 75 97 9.0 16.0 0.00 0.06 0.05 71 1025.6
20260831083920 74 117 10.0 20.0 0.00 0.06 0.05 69 1025.7
20260831083406 74 78 9.0 18.0 0.02 0.06 0.05 70 1025.8
20260831082905 73 80 6.0 14.0 0.02 0.06 0.05 71 1025.9
20260831082405 72 86 8.0 14.0 0.02 0.06 0.05 72 1026.1
20260831081905 71 83 8.0 15.0 0.02 0.06 0.05 77 1026.2
20260831081405 70 79 10.0 20.0 0.02 0.06 0.05 79 1026.5
20260831080905 71 72 11.0 22.0 0.02 0.06 0.05 75 1026.6
20260831080405 74 65 13.0 25.0 0.02 0.06 0.05 72 1026.7
20260831075906 74 78 11.0 24.0 0.02 0.06 0.05 72 1026.5
20260831074907 71 79 9.0 17.0 0.02 0.06 0.05 79 1026.7
20260831074405 70 73 7.0 20.0 0.02 0.06 0.05 80 1026.8
20260831073906 72 89 8.0 20.0 0.02 0.06 0.05 77 1027.0
20260831072906 76 69 9.0 20.0 0.00 0.04 0.03 70 1026.9
20260831072406 76 65 10.0 24.0 0.00 0.04 0.03 67 1026.9
20260831071905 76 99 12.0 21.0 0.00 0.04 0.03 68 1027.0
20260831071406 76 68 12.0 22.0 0.00 0.04 0.03 66 1027.0
20260831070905 76 59 8.0 18.0 0.00 0.04 0.03 66 1027.1
20260831065906 76 108 9.0 18.0 0.00 0.04 0.03 65 1027.3
20260831065405 76 106 13.0 26.0 0.00 0.04 0.03 66 1027.3
20260831064905 76 75 10.0 17.0 0.00 0.05 0.03 68 1027.3
20260831064406 76 90 10.0 20.0 0.00 0.05 0.03 68 1027.4
20260831063905 76 77 11.0 20.0 0.00 0.05 0.03 68 1027.5
20260831063405 75 101 8.0 23.0 0.00 0.05 0.03 69 1027.5
20260831062906 75 115 13.0 20.0 0.00 0.05 0.03 68 1027.5
20260831062405 75 75 10.0 21.0 0.00 0.05 0.03 68 1027.6
20260831061906 76 106 9.0 20.0 0.00 0.05 0.03 70 1027.5
20260831061405 75 72 9.0 16.0 0.00 0.05 0.03 70 1027.6
20260831060905 75 92 10.0 18.0 0.00 0.05 0.03 70 1027.6
20260831060406 75 68 11.0 18.0 0.00 0.05 0.03 71 1027.6
20260831055905 75 83 7.0 20.0 0.00 0.05 0.03 72 1027.8
20260831055405 75 99 9.0 17.0 0.00 0.05 0.03 72 1027.9
20260831054405 75 94 9.0 18.0 0.00 0.05 0.03 72 1028.1
20260831053905 75 110 6.0 13.0 0.00 0.05 0.03 73 1028.1
20260831053405 74 99 8.0 17.0 0.00 0.05 0.03 73 1028.1
20260831052905 74 84 9.0 20.0 0.00 0.05 0.03 71 1028.1
20260831052405 74 84 9.0 20.0 0.00 0.05 0.03 71 1028.1
20260831051905 73 73 8.0 16.0 0.00 0.05 0.03 70 1028.0
20260831051405 73 85 7.0 14.0 0.02 0.05 0.03 71 1028.0
20260831050905 72 104 5.0 14.0 0.03 0.06 0.03 72 1028.0
20260831050405 72 73 9.0 26.0 0.03 0.06 0.03 73 1027.9
20260831045905 72 89 7.0 16.0 0.03 0.06 0.03 74 1027.9
20260831044405 70 80 7.0 14.0 0.03 0.07 0.03 79 1027.8
20260831043905 69 87 5.0 13.0 0.03 0.08 0.03 82 1027.9
20260831043405 69 69 2.0 6.0 0.03 0.08 0.03 82 1027.8
20260831042905 69 68 5.0 12.0 0.03 0.08 0.03 81 1027.8
20260831042405 69 70 4.0 12.0 0.03 0.08 0.03 82 1027.7
20260831041905 70 56 5.0 12.0 0.03 0.08 0.03 80 1027.7
20260831040905 71 87 4.0 12.0 0.00 0.05 0.00 76 1027.5
20260831035905 71 100 5.0 12.0 0.00 0.06 0.00 74 1027.5
20260831035406 70 76 6.0 12.0 0.00 0.06 0.00 74 1027.5
20260831034905 69 94 5.0 12.0 0.00 0.06 0.00 75 1027.5
20260831033905 70 113 6.0 15.0 0.00 0.06 0.00 77 1027.6
20260831033405 69 114 4.0 8.0 0.00 0.06 0.00 77 1027.5
20260831032906 69 108 5.0 12.0 0.00 0.06 0.00 77 1027.4
20260831032405 69 127 6.0 12.0 0.00 0.06 0.00 77 1027.5
20260831031405 69 112 7.0 14.0 0.00 0.06 0.00 77 1027.4
20260831030905 69 136 7.0 12.0 0.00 0.06 0.00 78 1027.3
20260831030405 69 156 3.0 12.0 0.00 0.06 0.00 78 1027.3
20260831025905 69 128 5.0 12.0 0.00 0.06 0.00 78 1027.2
20260831024905 70 122 5.0 16.0 0.00 0.06 0.00 77 1027.3
20260831024405 70 110 5.0 15.0 0.00 0.06 0.00 75 1027.2
20260831023406 70 93 6.0 13.0 0.00 0.06 0.00 75 1027.1
20260831022905 70 89 6.0 15.0 0.00 0.06 0.00 76 1027.0
20260831022405 70 87 5.0 14.0 0.00 0.07 0.00 76 1027.0
20260831021905 69 88 7.0 15.0 0.00 0.07 0.00 77 1026.9
20260831021405 69 75 7.0 15.0 0.00 0.07 0.00 77 1027.0
20260831020905 69 82 8.0 16.0 0.00 0.07 0.00 77 1026.9
20260831015905 70 92 7.0 16.0 0.00 0.07 0.00 77 1026.8
20260831015405 70 75 9.0 20.0 0.00 0.07 0.00 77 1026.6
20260831014405 70 102 6.0 15.0 0.00 0.07 0.00 73 1026.3
20260831013906 70 106 6.0 12.0 0.00 0.07 0.00 72 1026.2
20260831012906 70 81 5.0 12.0 0.00 0.07 0.00 72 1026.2
20260831012406 70 107 6.0 12.0 0.00 0.07 0.00 73 1026.2
20260831011905 70 90 6.0 13.0 0.00 0.07 0.00 73 1026.1
20260831011406 70 95 6.0 13.0 0.00 0.07 0.00 74 1026.0
20260831010905 70 94 6.0 13.0 0.00 0.07 0.00 75 1026.0
20260831010405 70 80 7.0 17.0 0.00 0.07 0.00 76 1025.9
20260831005905 71 96 5.0 17.0 0.00 0.07 0.00 76 1025.9
20260831005405 71 96 6.0 14.0 0.00 0.07 0.00 73 1025.9
20260831004905 71 84 5.0 14.0 0.00 0.07 0.00 72 1025.9
20260831004405 71 88 7.0 13.0 0.00 0.07 0.00 71 1025.9
20260831003905 71 95 6.0 13.0 0.00 0.07 0.00 71 1025.7
20260831003405 71 83 3.0 10.0 0.00 0.07 0.00 70 1025.8
20260831002905 71 81 5.0 15.0 0.00 0.08 0.00 70 1025.7
20260831002406 71 92 7.0 13.0 0.00 0.08 0.00 71 1025.7
20260831001905 71 79 4.0 13.0 0.00 0.08 0.00 71 1025.8
20260831000405 71 88 3.0 12.0 0.00 0.08 0.00 70 1025.7
20260830235906 71 104 4.0 12.0 0.00 0.08 0.00 70 1025.8
20260830235405 71 89 7.0 12.0 0.00 0.08 0.00 71 1025.8
20260830234906 71 86 5.0 12.0 0.00 0.08 0.00 70 1025.8
20260830233905 71 76 7.0 13.0 0.00 0.08 0.00 67 1025.8
20260830233406 71 107 6.0 12.0 0.00 0.08 0.00 63 1026.0
20260830232906 71 78 5.0 12.0 0.00 0.08 0.00 62 1025.9
20260830232405 71 89 5.0 12.0 0.00 0.08 0.00 63 1026.0
20260830231405 71 76 6.0 15.0 0.00 0.08 0.00 65 1026.1
20260830230905 70 80 5.0 14.0 0.00 0.08 0.00 68 1026.1
20260830225905 70 105 4.0 15.0 0.00 0.08 0.00 75 1026.2
20260830225405 70 110 3.0 7.0 0.00 0.08 0.00 74 1026.2
20260830223905 70 80 2.0 9.0 0.00 0.08 0.00 71 1026.4
20260830223405 70 117 1.0 8.0 0.00 0.08 0.00 70 1026.4
20260830222906 70 89 4.0 9.0 0.00 0.08 0.00 70 1026.4
20260830221905 71 131 7.0 20.0 0.00 0.08 0.00 68 1026.4
20260830221405 71 115 6.0 20.0 0.00 0.08 0.00 68 1026.5
20260830220905 71 120 9.0 18.0 0.00 0.08 0.00 68 1026.5
20260830215904 71 79 7.0 16.0 0.00 0.08 0.00 75 1026.5
20260830215405 71 76 8.0 15.0 0.00 0.08 0.00 76 1026.5
20260830214906 71 91 9.0 20.0 0.00 0.08 0.00 76 1026.6
20260830213905 72 88 6.0 15.0 0.00 0.08 0.00 65 1026.5
20260830213405 72 73 8.0 15.0 0.00 0.08 0.00 61 1026.5
20260830212905 72 92 8.0 16.0 0.00 0.08 0.00 60 1026.4
20260830211406 72 84 7.0 17.0 0.00 0.08 0.00 62 1026.7
20260830210905 72 73 9.0 15.0 0.00 0.08 0.00 62 1026.8
20260830210405 72 97 7.0 16.0 0.00 0.08 0.00 63 1027.0
20260830204905 72 97 6.0 17.0 0.00 0.08 0.00 68 1027.1
20260830204405 72 90 9.0 16.0 0.00 0.08 0.00 69 1027.1
20260830203405 72 102 9.0 15.0 0.00 0.08 0.00 72 1027.2
20260830202905 71 102 5.0 14.0 0.00 0.08 0.00 72 1027.2
20260830202406 71 92 7.0 15.0 0.00 0.08 0.00 71 1027.3
20260830201905 71 90 6.0 16.0 0.00 0.08 0.00 72 1027.4
20260830201405 71 129 5.0 10.0 0.00 0.08 0.00 73 1027.4
20260830200405 71 75 5.0 12.0 0.00 0.08 0.00 70 1027.5
20260830195905 71 78 7.0 14.0 0.00 0.08 0.08 70 1027.5
20260830195405 71 98 5.0 12.0 0.00 0.08 0.08 71 1027.5
20260830194905 71 88 4.0 15.0 0.01 0.08 0.08 70 1027.5
20260830194405 71 104 3.0 14.0 0.01 0.08 0.08 70 1027.6
20260830193905 71 99 6.0 13.0 0.01 0.08 0.08 69 1027.6
20260830192905 72 78 8.0 17.0 0.01 0.08 0.08 69 1027.8
20260830192405 71 90 6.0 14.0 0.01 0.08 0.08 69 1027.9
20260830191906 71 80 9.0 14.0 0.01 0.08 0.08 68 1028.0
20260830191405 71 90 6.0 14.0 0.01 0.08 0.08 69 1028.0
20260830190905 71 77 5.0 12.0 0.01 0.08 0.08 68 1028.1
20260830185905 71 79 6.0 12.0 0.01 0.08 0.08 69 1027.9
20260830185405 70 93 9.0 14.0 0.01 0.08 0.08 70 1027.9
20260830184905 69 81 6.0 17.0 0.00 0.07 0.07 75 1027.9
20260830184406 69 105 4.0 12.0 0.00 0.07 0.07 77 1027.9
20260830183905 69 100 5.0 13.0 0.00 0.07 0.07 77 1027.9
20260830183405 69 74 7.0 13.0 0.00 0.07 0.07 77 1027.9
20260830182405 71 78 9.0 18.0 0.00 0.07 0.07 77 1028.0
20260830181905 72 93 6.0 17.0 0.00 0.07 0.07 74 1027.9
20260830181405 72 101 4.0 16.0 0.00 0.07 0.07 73 1027.8
20260830180906 72 89 9.0 15.0 0.00 0.07 0.07 73 1027.8
20260830180405 72 110 3.0 12.0 0.00 0.07 0.07 74 1027.8
20260830175906 72 69 7.0 13.0 0.00 0.07 0.07 74 1027.9
20260830175405 72 89 6.0 16.0 0.00 0.07 0.07 73 1027.9
20260830174905 72 117 9.0 20.0 0.00 0.07 0.07 73 1027.9
20260830173905 72 78 5.0 12.0 0.00 0.07 0.07 72 1027.9
20260830173405 72 101 6.0 18.0 0.00 0.07 0.07 72 1027.9
20260830172405 72 96 8.0 18.0 0.00 0.07 0.07 70 1027.8
20260830171906 72 95 8.0 18.0 0.00 0.07 0.07 69 1027.9
20260830171406 72 92 10.0 20.0 0.00 0.07 0.07 71 1027.8
20260830170905 72 93 8.0 17.0 0.00 0.07 0.07 72 1027.8
20260830170405 72 93 9.0 18.0 0.00 0.07 0.07 73 1027.7
20260830165905 72 81 6.0 15.0 0.00 0.07 0.07 73 1027.7
20260830165405 72 80 11.0 20.0 0.00 0.07 0.07 73 1027.6
20260830164905 72 74 6.0 13.0 0.00 0.07 0.07 74 1027.7
20260830164405 72 94 4.0 12.0 0.00 0.07 0.07 74 1027.6
20260830163405 72 71 7.0 16.0 0.00 0.07 0.07 73 1027.5
20260830162905 72 105 7.0 14.0 0.00 0.07 0.07 73 1027.5
20260830162405 72 86 7.0 16.0 0.00 0.07 0.07 73 1027.5
20260830161905 72 110 8.0 18.0 0.00 0.07 0.07 74 1027.6
20260830161405 71 100 6.0 14.0 0.00 0.07 0.07 75 1027.5
20260830160406 71 133 6.0 16.0 0.00 0.07 0.07 74 1027.3
20260830155906 71 102 9.0 15.0 0.00 0.07 0.07 74 1027.3
20260830155405 71 103 8.0 13.0 0.00 0.07 0.07 73 1027.3
20260830154905 71 86 3.0 12.0 0.00 0.07 0.07 72 1027.3
20260830154405 71 102 5.0 14.0 0.00 0.07 0.07 71 1027.2
20260830153905 72 87 4.0 12.0 0.00 0.07 0.07 71 1027.3
20260830153405 72 89 5.0 13.0 0.00 0.07 0.07 71 1027.2
20260830152906 72 109 8.0 15.0 0.00 0.07 0.07 73 1027.1
20260830152405 72 103 6.0 16.0 0.00 0.07 0.07 74 1027.0
20260830151405 71 71 5.0 13.0 0.00 0.07 0.07 74 1026.8
20260830150905 71 91 4.0 13.0 0.00 0.07 0.07 73 1026.8
20260830150405 71 89 7.0 15.0 0.00 0.07 0.07 73 1026.7
20260830145905 71 80 6.0 13.0 0.00 0.07 0.07 74 1026.8
20260830145405 71 93 7.0 15.0 0.00 0.07 0.07 74 1026.7
20260830144905 71 103 8.0 16.0 0.00 0.07 0.07 74 1026.6
20260830144405 71 116 6.0 12.0 0.00 0.07 0.07 74 1026.7
20260830143905 71 104 7.0 13.0 0.00 0.07 0.07 73 1026.6
20260830143405 71 85 8.0 14.0 0.00 0.07 0.07 73 1026.7
20260830142905 71 101 8.0 16.0 0.00 0.07 0.07 73 1026.7
20260830142405 70 106 7.0 17.0 0.00 0.07 0.07 75 1026.7
20260830141905 70 114 7.0 14.0 0.00 0.07 0.07 77 1026.6
20260830141406 70 127 3.0 13.0 0.00 0.07 0.07 77 1026.6
20260830140905 70 107 5.0 14.0 0.00 0.07 0.07 77 1026.5
20260830140405 71 103 8.0 17.0 0.00 0.07 0.07 77 1026.5
20260830135905 72 99 7.0 16.0 0.00 0.07 0.07 75 1026.5
20260830135405 71 92 6.0 13.0 0.00 0.07 0.07 76 1026.5
20260830134405 71 122 5.0 14.0 0.00 0.07 0.07 76 1026.4
20260830133905 71 129 5.0 10.0 0.00 0.07 0.07 76 1026.4
20260830133405 72 116 6.0 15.0 0.00 0.07 0.07 76 1026.4
20260830132905 71 106 7.0 17.0 0.00 0.07 0.07 76 1026.2
20260830132405 71 115 6.0 16.0 0.00 0.07 0.07 76 1026.2
20260830131905 71 124 6.0 15.0 0.00 0.07 0.07 75 1026.3
20260830131405 72 107 9.0 16.0 0.00 0.07 0.07 75 1026.4
20260830130905 72 97 9.0 14.0 0.00 0.07 0.07 75 1026.3
20260830125905 72 86 6.0 15.0 0.00 0.07 0.07 75 1026.3
20260830125405 72 120 7.0 15.0 0.00 0.07 0.07 75 1026.3
20260830124905 71 111 9.0 16.0 0.00 0.07 0.07 76 1026.3
20260830124405 72 91 9.0 20.0 0.00 0.07 0.07 76 1026.2
20260830123905 73 87 10.0 20.0 0.00 0.07 0.07 75 1026.2
20260830122905 74 94 8.0 18.0 0.00 0.07 0.07 72 1025.8
20260830122406 74 99 9.0 23.0 0.00 0.07 0.07 71 1025.8
20260830115904 74 89 9.0 22.0 0.00 0.07 0.07 68 1026.1
20260830114905 74 84 11.0 22.0 0.00 0.07 0.07 69 1026.0
20260830114405 73 93 9.0 15.0 0.00 0.07 0.07 73 1025.9
20260830113905 73 80 8.0 16.0 0.00 0.07 0.07 75 1025.9
20260830113405 72 55 6.0 16.0 0.00 0.07 0.07 77 1025.9
20260830112905 72 89 8.0 14.0 0.00 0.07 0.07 77 1026.0
20260830112405 73 63 11.0 20.0 0.00 0.07 0.07 76 1026.1
20260830111906 74 73 5.0 13.0 0.00 0.07 0.07 75 1026.2
20260830111405 73 74 8.0 15.0 0.00 0.07 0.07 74 1026.1
20260830110905 72 137 10.0 18.0 0.00 0.07 0.07 75 1026.1
20260830110406 71 104 5.0 15.0 0.00 0.07 0.07 76 1026.2
20260830105905 70 87 9.0 14.0 0.00 0.07 0.07 77 1026.1
20260830105405 71 74 10.0 20.0 0.00 0.07 0.07 77 1026.2
20260830104906 71 76 7.0 15.0 0.00 0.07 0.07 77 1026.4
20260830104405 71 85 11.0 20.0 0.00 0.07 0.07 77 1026.6
20260830103905 71 68 12.0 21.0 0.00 0.07 0.07 76 1026.5
20260830102904 70 110 8.0 20.0 0.00 0.07 0.07 77 1026.7
20260830102405 71 119 14.0 25.0 0.00 0.07 0.07 76 1026.7
20260830101905 73 80 10.0 17.0 0.00 0.07 0.07 72 1026.7
20260830101405 72 117 6.0 13.0 0.00 0.07 0.07 75 1026.7
20260830100905 72 88 12.0 21.0 0.00 0.07 0.07 76 1026.9
20260830100406 72 73 12.0 20.0 0.00 0.07 0.07 75 1027.0
20260830095905 75 93 12.0 28.0 0.00 0.07 0.07 70 1026.9
20260830095405 75 78 10.0 25.0 0.00 0.07 0.07 68 1026.6